"read_dt","SO2 (ppb)","flags","PMT voltage (V)","lamp voltage (V)","lamp intensity (Hz)","internal temp (C)","react chamber temp (C)","sample flow (l/min)","pres (mmHg)","SO2 bkg (ppb)","SO2 coefficient"
2015-03-02 00:00:00,2322E-3,5C000000,-0724,0837,11986,028.4,045.4,0.455,744.4,01.18,0.508
2015-03-02 00:01:00,2258E-3,5C000000,-0724,0837,12012,028.4,045.5,0.456,744.4,01.18,0.508
2015-03-02 00:02:00,2330E-3,5C000000,-0724,0837,12218,028.4,045.5,0.455,744.3,01.18,0.508
2015-03-02 00:03:00,2343E-3,5C000000,-0724,0836,12107,028.4,045.5,0.456,744.4,01.18,0.508
2015-03-02 00:04:00,2152E-3,5C000000,-0724,0836,12144,028.5,045.5,0.456,744.3,01.18,0.508
2015-03-02 00:05:00,2174E-3,5C000000,-0724,0836,12198,028.4,045.4,0.455,744.3,01.18,0.508
2015-03-02 00:06:00,2252E-3,5C000000,-0724,0836,12067,028.5,045.4,0.456,744.3,01.18,0.508
2015-03-02 00:07:00,2276E-3,5C000000,-0724,0836,12072,028.5,045.4,0.455,744.3,01.18,0.508
2015-03-02 00:08:00,2190E-3,5C000000,-0724,0836,12256,028.5,045.5,0.456,744.3,01.18,0.508
2015-03-02 00:09:00,2145E-3,5C000000,-0724,0836,12102,028.5,045.4,0.455,744.3,01.18,0.508
2015-03-02 00:10:00,2275E-3,5C000000,-0724,0836,12106,028.5,045.4,0.456,744.3,01.18,0.508
2015-03-02 00:11:00,2221E-3,5C000000,-0724,0836,12015,028.4,045.5,0.455,744.3,01.18,0.508
2015-03-02 00:12:00,2237E-3,5C000000,-0724,0836,12059,028.5,045.5,0.455,744.3,01.18,0.508
2015-03-02 00:13:00,2260E-3,5C000000,-0724,0837,12111,028.5,045.5,0.455,744.3,01.18,0.508
2015-03-02 00:14:00,2207E-3,5C000000,-0724,0836,12143,028.5,045.5,0.455,744.3,01.18,0.508
2015-03-02 00:15:00,2187E-3,5C000000,-0724,0836,12285,028.5,045.4,0.456,744.3,01.18,0.508
2015-03-02 00:16:00,2160E-3,5C000000,-0724,0835,11996,028.5,045.4,0.455,744.3,01.18,0.508
2015-03-02 00:17:00,2250E-3,5C000000,-0724,0836,11963,028.5,045.5,0.456,744.3,01.18,0.508
2015-03-02 00:18:00,2322E-3,5C000000,-0724,0836,12178,028.5,045.4,0.456,744.4,01.18,0.508
2015-03-02 00:19:00,2271E-3,5C000000,-0724,0837,12111,028.5,045.5,0.455,744.4,01.18,0.508
2015-03-02 00:20:00,2295E-3,5C000000,-0724,0837,12273,028.5,045.5,0.456,744.4,01.18,0.508
2015-03-02 00:21:00,2193E-3,5C000000,-0724,0836,12141,028.5,045.5,0.455,744.3,01.18,0.508
2015-03-02 00:22:00,2310E-3,5C000000,-0724,0836,12034,028.6,045.5,0.456,744.3,01.18,0.508
2015-03-02 00:23:00,2211E-3,5C000000,-0724,0836,12073,028.6,045.5,0.455,744.4,01.18,0.508
2015-03-02 00:24:00,2341E-3,5C000000,-0724,0835,12144,028.6,045.5,0.456,744.4,01.18,0.508
2015-03-02 00:25:00,2081E-3,5C000000,-0724,0837,12111,028.6,045.5,0.455,744.4,01.18,0.508
2015-03-02 00:26:00,2236E-3,5C000000,-0724,0836,12110,028.5,045.5,0.456,744.4,01.18,0.508
2015-03-02 00:27:00,2145E-3,5C000000,-0724,0837,12052,028.6,045.4,0.455,744.4,01.18,0.508
2015-03-02 00:28:00,2212E-3,5C000000,-0724,0836,12183,028.6,045.4,0.456,744.4,01.18,0.508
2015-03-02 00:29:00,2299E-3,5C000000,-0724,0837,12082,028.6,045.5,0.455,744.4,01.18,0.508
2015-03-02 00:30:00,2225E-3,5C000000,-0724,0836,12174,028.6,045.5,0.456,744.3,01.18,0.508
2015-03-02 00:31:00,2155E-3,5C000000,-0724,0838,12123,028.6,045.5,0.455,744.3,01.18,0.508
2015-03-02 00:32:00,2296E-3,5C000000,-0724,0836,12274,028.6,045.4,0.456,744.3,01.18,0.508
2015-03-02 00:33:00,2085E-3,5C000000,-0724,0837,12124,028.6,045.5,0.455,744.3,01.18,0.508
2015-03-02 00:34:00,2308E-3,5C000000,-0724,0837,12171,028.6,045.5,0.456,744.3,01.18,0.508
2015-03-02 00:35:00,2111E-3,5C000000,-0724,0837,12180,028.6,045.5,0.455,744.3,01.18,0.508
2015-03-02 00:36:00,2117E-3,5C000000,-0724,0836,12040,028.6,045.5,0.455,744.3,01.18,0.508
2015-03-02 00:37:00,2117E-3,5C000000,-0724,0836,12055,028.6,045.5,0.455,744.3,01.18,0.508
2015-03-02 00:38:00,2365E-3,5C000000,-0724,0836,12189,028.6,045.5,0.456,744.3,01.18,0.508
2015-03-02 00:39:00,2245E-3,5C000000,-0724,0837,12151,028.6,045.5,0.455,744.3,01.18,0.508
2015-03-02 00:40:00,2241E-3,5C000000,-0724,0836,12116,028.6,045.5,0.455,744.3,01.18,0.508
2015-03-02 00:41:00,2280E-3,5C000000,-0724,0836,12229,028.6,045.5,0.455,744.4,01.18,0.508
2015-03-02 00:42:00,2221E-3,5C000000,-0724,0836,12004,028.6,045.4,0.455,744.4,01.18,0.508
2015-03-02 00:43:00,2275E-3,5C000000,-0724,0836,12089,028.7,045.5,0.455,744.3,01.18,0.508
2015-03-02 00:44:00,2196E-3,5C000000,-0724,0836,12197,028.7,045.4,0.455,744.4,01.18,0.508
2015-03-02 00:45:00,2242E-3,5C000000,-0724,0837,12163,028.7,045.4,0.455,744.4,01.18,0.508
2015-03-02 00:46:00,2350E-3,5C000000,-0724,0836,12085,028.7,045.5,0.455,744.4,01.18,0.508
2015-03-02 00:47:00,2390E-3,5C000000,-0724,0836,12088,028.7,045.5,0.455,744.4,01.18,0.508
2015-03-02 00:48:00,2144E-3,5C000000,-0724,0837,12175,028.6,045.4,0.455,744.4,01.18,0.508
2015-03-02 00:49:00,2190E-3,5C000000,-0724,0837,12104,028.7,045.5,0.456,744.4,01.18,0.508
2015-03-02 00:50:00,2252E-3,5C000000,-0724,0836,12159,028.7,045.5,0.455,744.4,01.18,0.508
2015-03-02 00:51:00,2094E-3,5C000000,-0724,0836,12067,028.7,045.5,0.456,744.4,01.18,0.508
2015-03-02 00:52:00,2193E-3,5C000000,-0724,0836,12158,028.7,045.5,0.455,744.4,01.18,0.508
2015-03-02 00:53:00,2214E-3,5C000000,-0724,0837,12229,028.7,045.5,0.455,744.4,01.18,0.508
2015-03-02 00:54:00,2367E-3,5C000000,-0724,0837,12158,028.7,045.5,0.455,744.3,01.18,0.508
2015-03-02 00:55:00,2232E-3,5C000000,-0724,0837,12154,028.8,045.5,0.455,744.3,01.18,0.508
2015-03-02 00:56:00,2251E-3,5C000000,-0724,0836,12192,028.7,045.5,0.455,744.3,01.18,0.508
2015-03-02 00:57:00,2161E-3,5C000000,-0724,0837,12033,028.7,045.5,0.455,744.3,01.18,0.508
2015-03-02 00:58:00,2178E-3,5C000000,-0724,0838,12011,028.7,045.5,0.455,744.3,01.18,0.508
2015-03-02 00:59:00,2188E-3,5C000000,-0724,0837,12284,028.8,045.4,0.455,744.3,01.18,0.508
2015-03-02 01:00:00,2239E-3,5C000000,-0724,0837,12072,028.7,045.5,0.455,744.3,01.18,0.508
2015-03-02 01:01:00,2273E-3,5C000000,-0724,0837,12159,028.7,045.5,0.455,744.3,01.18,0.508
2015-03-02 01:02:00,2160E-3,5C000000,-0724,0837,12084,028.8,045.5,0.455,744.3,01.18,0.508
2015-03-02 01:03:00,2237E-3,5C000000,-0724,0837,11838,028.8,045.4,0.455,744.3,01.18,0.508
2015-03-02 01:04:00,2238E-3,5C000000,-0724,0837,12256,028.8,045.4,0.455,744.3,01.18,0.508
2015-03-02 01:05:00,2155E-3,5C000000,-0724,0837,12149,028.8,045.5,0.455,744.3,01.18,0.508
2015-03-02 01:06:00,2085E-3,5C000000,-0724,0836,12093,028.8,045.5,0.455,744.3,01.18,0.508
2015-03-02 01:07:00,2081E-3,5C000000,-0724,0837,12232,028.8,045.5,0.455,744.3,01.18,0.508
2015-03-02 01:08:00,2161E-3,5C000000,-0724,0837,12161,028.8,045.5,0.455,744.3,01.18,0.508
2015-03-02 01:09:00,2154E-3,5C000000,-0724,0837,12026,028.8,045.5,0.455,744.3,01.18,0.508
2015-03-02 01:10:00,2222E-3,5C000000,-0724,0836,11907,028.8,045.5,0.455,744.3,01.18,0.508
2015-03-02 01:11:00,2195E-3,5C000000,-0724,0837,12001,028.8,045.5,0.455,744.3,01.18,0.508
2015-03-02 01:12:00,2106E-3,5C000000,-0724,0836,12052,028.9,045.5,0.455,744.3,01.18,0.508
2015-03-02 01:13:00,2216E-3,5C000000,-0724,0837,12228,028.9,045.5,0.455,744.3,01.18,0.508
2015-03-02 01:14:00,2127E-3,5C000000,-0724,0837,11932,028.8,045.5,0.455,744.3,01.18,0.508
2015-03-02 01:15:00,2280E-3,5C000000,-0724,0837,12203,028.9,045.5,0.455,744.3,01.18,0.508
2015-03-02 01:16:00,2185E-3,5C000000,-0724,0838,12119,028.9,045.4,0.455,744.4,01.18,0.508
2015-03-02 01:17:00,2073E-3,5C000000,-0724,0836,12058,028.9,045.5,0.455,744.4,01.18,0.508
2015-03-02 01:18:00,2245E-3,5C000000,-0724,0837,12256,028.9,045.5,0.455,744.3,01.18,0.508
2015-03-02 01:19:00,2142E-3,5C000000,-0724,0837,12146,028.9,045.5,0.455,744.3,01.18,0.508
2015-03-02 01:20:00,2150E-3,5C000000,-0724,0837,12178,028.9,045.5,0.455,744.3,01.18,0.508
2015-03-02 01:21:00,2197E-3,5C000000,-0724,0837,12195,028.9,045.5,0.455,744.4,01.18,0.508
2015-03-02 01:22:00,2287E-3,5C000000,-0724,0836,12111,028.9,045.5,0.455,744.4,01.18,0.508
2015-03-02 01:23:00,2106E-3,5C000000,-0724,0836,12176,028.9,045.5,0.455,744.4,01.18,0.508
2015-03-02 01:24:00,2114E-3,5C000000,-0724,0836,12194,028.9,045.5,0.455,744.4,01.18,0.508
2015-03-02 01:25:00,2166E-3,5C000000,-0724,0837,12047,028.9,045.5,0.455,744.4,01.18,0.508
2015-03-02 01:26:00,2077E-3,5C000000,-0724,0836,12117,028.9,045.5,0.455,744.4,01.18,0.508
2015-03-02 01:27:00,2168E-3,5C000000,-0724,0836,12200,028.9,045.5,0.455,744.4,01.18,0.508
2015-03-02 01:28:00,2036E-3,5C000000,-0724,0836,12214,028.9,045.5,0.455,744.4,01.18,0.508
2015-03-02 01:29:00,2212E-3,5C000000,-0724,0837,12176,028.9,045.5,0.455,744.4,01.18,0.508
2015-03-02 01:30:00,2222E-3,5C000000,-0724,0836,12181,029.0,045.5,0.455,744.4,01.18,0.508
2015-03-02 01:31:00,2181E-3,5C000000,-0724,0836,12090,029.0,045.5,0.455,744.5,01.17,0.508
2015-03-02 01:32:00,2429E-3,5C000000,-0724,0837,11848,029.0,045.5,0.455,744.5,01.17,0.508
2015-03-02 01:33:00,2189E-3,5C000000,-0724,0836,11975,029.0,045.5,0.455,744.5,01.17,0.508
2015-03-02 01:34:00,2219E-3,5C000000,-0724,0837,12281,029.0,045.5,0.455,744.5,01.17,0.508
2015-03-02 01:35:00,2273E-3,5C000000,-0724,0836,12195,029.0,045.5,0.455,744.5,01.17,0.508
2015-03-02 01:36:00,2377E-3,5C000000,-0724,0836,12137,029.0,045.5,0.455,744.5,01.17,0.508
2015-03-02 01:37:00,2071E-3,5C000000,-0724,0836,12255,029.0,045.5,0.455,744.5,01.17,0.508
2015-03-02 01:38:00,2004E-3,5C000000,-0724,0837,12209,029.0,045.4,0.455,744.5,01.17,0.508
2015-03-02 01:39:00,2138E-3,5C000000,-0724,0836,12123,029.0,045.5,0.455,744.5,01.17,0.508
2015-03-02 01:40:00,2340E-3,5C000000,-0724,0837,12254,029.0,045.5,0.455,744.5,01.17,0.508
2015-03-02 01:41:00,2151E-3,5C000000,-0724,0836,12129,029.0,045.5,0.455,744.5,01.17,0.508
2015-03-02 01:42:00,2122E-3,5C000000,-0724,0836,12070,029.0,045.5,0.455,744.5,01.17,0.508
2015-03-02 01:43:00,2139E-3,5C000000,-0724,0837,12101,029.0,045.5,0.455,744.5,01.17,0.508
2015-03-02 01:44:00,2229E-3,5C000000,-0724,0836,12292,029.1,045.5,0.455,744.5,01.17,0.508
2015-03-02 01:45:00,2247E-3,5C000000,-0724,0837,12167,029.1,045.5,0.455,744.5,01.17,0.508
2015-03-02 01:46:00,2016E-3,5C000000,-0724,0836,12245,029.1,045.5,0.455,744.5,01.17,0.508
2015-03-02 01:47:00,2028E-3,5C000000,-0724,0836,12241,029.1,045.5,0.455,744.5,01.17,0.508
2015-03-02 01:48:00,2229E-3,5C000000,-0724,0836,12160,029.1,045.5,0.455,744.5,01.17,0.508
2015-03-02 01:49:00,2087E-3,5C000000,-0724,0836,12215,029.1,045.5,0.455,744.5,01.17,0.508
2015-03-02 01:50:00,2300E-3,5C000000,-0724,0835,11936,029.1,045.5,0.455,744.5,01.17,0.508
2015-03-02 01:51:00,2177E-3,5C000000,-0724,0837,12268,029.1,045.5,0.454,744.5,01.17,0.508
2015-03-02 01:52:00,2131E-3,5C000000,-0724,0836,11980,029.1,045.4,0.455,744.5,01.17,0.508
2015-03-02 01:53:00,2123E-3,5C000000,-0724,0836,12087,029.1,045.5,0.455,744.5,01.17,0.508
2015-03-02 01:54:00,2248E-3,5C000000,-0724,0836,12167,029.1,045.5,0.455,744.5,01.17,0.508
2015-03-02 01:55:00,2082E-3,5C000000,-0724,0835,10951,029.1,045.5,0.455,744.5,01.17,0.508
2015-03-02 01:56:00,2100E-3,5C000000,-0724,0836,12072,029.1,045.5,0.454,744.5,01.17,0.508
2015-03-02 01:57:00,2189E-3,5C000000,-0724,0837,12102,029.1,045.5,0.455,744.5,01.17,0.508
2015-03-02 01:58:00,2196E-3,5C000000,-0724,0837,12139,029.1,045.5,0.455,744.5,01.17,0.508
2015-03-02 01:59:00,2200E-3,5C000000,-0724,0837,12066,029.1,045.5,0.455,744.5,01.17,0.508
2015-03-02 02:00:00,2198E-3,5C000000,-0724,0837,12195,029.1,045.5,0.455,744.5,01.17,0.508
2015-03-02 02:01:00,2282E-3,5C000000,-0724,0836,12160,029.1,045.5,0.454,744.4,01.18,0.508
2015-03-02 02:02:00,2127E-3,5C000000,-0724,0836,12012,029.2,045.4,0.455,744.4,01.18,0.508
2015-03-02 02:03:00,2093E-3,5C000000,-0724,0836,12323,029.1,045.5,0.455,744.5,01.17,0.508
2015-03-02 02:04:00,2165E-3,5C000000,-0724,0836,12139,029.2,045.5,0.454,744.5,01.17,0.508
2015-03-02 02:05:00,2123E-3,5C000000,-0724,0835,12071,029.2,045.5,0.455,744.5,01.17,0.508
2015-03-02 02:06:00,2317E-3,5C000000,-0724,0837,12125,029.2,045.5,0.455,744.5,01.17,0.508
2015-03-02 02:07:00,2254E-3,5C000000,-0724,0836,11967,029.2,045.5,0.455,744.5,01.17,0.508
2015-03-02 02:08:00,2143E-3,5C000000,-0724,0837,12262,029.2,045.5,0.455,744.4,01.18,0.508
2015-03-02 02:09:00,2170E-3,5C000000,-0724,0837,12110,029.2,045.5,0.454,744.4,01.18,0.508
2015-03-02 02:10:00,2191E-3,5C000000,-0724,0837,12241,029.2,045.5,0.455,744.5,01.17,0.508
2015-03-02 02:11:00,2284E-3,5C000000,-0724,0836,12109,029.2,045.5,0.455,744.5,01.17,0.508
2015-03-02 02:12:00,2081E-3,5C000000,-0724,0836,12034,029.2,045.5,0.454,744.5,01.17,0.508
2015-03-02 02:13:00,2151E-3,5C000000,-0724,0837,12062,029.2,045.5,0.455,744.5,01.17,0.508
2015-03-02 02:14:00,2227E-3,5C000000,-0724,0836,12072,029.2,045.5,0.455,744.5,01.17,0.508
2015-03-02 02:15:00,2179E-3,5C000000,-0724,0836,12078,029.2,045.5,0.454,744.5,01.17,0.508
2015-03-02 02:16:00,2092E-3,5C000000,-0724,0836,12236,029.3,045.5,0.455,744.5,01.17,0.508
2015-03-02 02:17:00,2188E-3,5C000000,-0724,0837,12085,029.2,045.5,0.454,744.4,01.18,0.508
2015-03-02 02:18:00,2208E-3,5C000000,-0724,0835,12045,029.3,045.5,0.455,744.4,01.18,0.508
2015-03-02 02:19:00,2163E-3,5C000000,-0724,0837,12026,029.2,045.5,0.455,744.4,01.18,0.508
2015-03-02 02:20:00,2221E-3,5C000000,-0724,0837,11989,029.2,045.5,0.454,744.5,01.17,0.508
2015-03-02 02:21:00,2133E-3,5C000000,-0724,0837,12298,029.2,045.5,0.455,744.5,01.17,0.508
2015-03-02 02:22:00,2137E-3,5C000000,-0724,0836,12153,029.3,045.5,0.454,744.5,01.17,0.508
2015-03-02 02:23:00,2349E-3,5C000000,-0724,0836,12171,029.3,045.5,0.454,744.5,01.17,0.508
2015-03-02 02:24:00,2316E-3,5C000000,-0724,0836,12081,029.3,045.5,0.455,744.5,01.17,0.508
2015-03-02 02:25:00,2147E-3,5C000000,-0724,0836,12151,029.3,045.5,0.454,744.5,01.17,0.508
2015-03-02 02:26:00,2188E-3,5C000000,-0724,0837,12309,029.3,045.5,0.455,744.5,01.17,0.508
2015-03-02 02:27:00,2203E-3,5C000000,-0724,0836,12012,029.3,045.5,0.454,744.5,01.17,0.508
2015-03-02 02:28:00,2072E-3,5C000000,-0724,0836,12234,029.3,045.5,0.454,744.5,01.17,0.508
2015-03-02 02:29:00,2127E-3,5C000000,-0724,0837,12070,029.3,045.5,0.455,744.5,01.17,0.508
2015-03-02 02:30:00,2228E-3,5C000000,-0724,0837,12051,029.4,045.5,0.454,744.4,01.18,0.508
2015-03-02 02:31:00,2090E-3,5C000000,-0724,0837,12175,029.4,045.5,0.455,744.4,01.18,0.508
2015-03-02 02:32:00,2130E-3,5C000000,-0724,0836,12131,029.3,045.5,0.454,744.4,01.18,0.508
2015-03-02 02:33:00,2273E-3,5C000000,-0724,0836,12126,029.3,045.5,0.454,744.4,01.18,0.508
2015-03-02 02:34:00,2223E-3,5C000000,-0724,0837,12019,029.4,045.5,0.455,744.4,01.18,0.508
2015-03-02 02:35:00,2243E-3,5C000000,-0724,0837,12216,029.4,045.5,0.454,744.4,01.18,0.508
2015-03-02 02:36:00,2213E-3,5C000000,-0724,0836,12192,029.4,045.5,0.454,744.4,01.18,0.508
2015-03-02 02:37:00,2299E-3,5C000000,-0724,0837,12089,029.4,045.5,0.454,744.4,01.18,0.508
2015-03-02 02:38:00,2248E-3,5C000000,-0724,0837,12120,029.4,045.5,0.454,744.4,01.18,0.508
2015-03-02 02:39:00,2114E-3,5C000000,-0724,0837,12213,029.4,045.5,0.455,744.4,01.18,0.508
2015-03-02 02:40:00,2310E-3,5C000000,-0724,0837,12305,029.4,045.5,0.454,744.4,01.18,0.508
2015-03-02 02:41:00,2331E-3,5C000000,-0724,0838,12175,029.4,045.5,0.454,744.4,01.18,0.508
2015-03-02 02:42:00,2313E-3,5C000000,-0724,0836,12091,029.4,045.5,0.455,744.3,01.18,0.508
2015-03-02 02:43:00,2146E-3,5C000000,-0724,0837,12188,029.4,045.5,0.454,744.3,01.18,0.508
2015-03-02 02:44:00,2247E-3,5C000000,-0724,0836,12150,029.4,045.5,0.454,744.4,01.18,0.508
2015-03-02 02:45:00,2172E-3,5C000000,-0724,0836,12047,029.4,045.5,0.454,744.3,01.18,0.508
2015-03-02 02:46:00,2287E-3,5C000000,-0724,0835,12130,029.4,045.5,0.454,744.3,01.18,0.508
2015-03-02 02:47:00,2285E-3,5C000000,-0724,0837,12227,029.4,045.5,0.454,744.3,01.18,0.508
2015-03-02 02:48:00,2203E-3,5C000000,-0724,0835,12444,029.4,045.5,0.454,744.3,01.18,0.508
2015-03-02 02:49:00,2260E-3,5C000000,-0724,0836,12335,029.4,045.5,0.454,744.3,01.18,0.508
2015-03-02 02:50:00,2276E-3,5C000000,-0724,0837,11995,029.4,045.5,0.454,744.3,01.18,0.508
2015-03-02 02:51:00,2239E-3,5C000000,-0724,0836,12222,029.5,045.5,0.454,744.4,01.18,0.508
2015-03-02 02:52:00,2263E-3,5C000000,-0724,0836,12160,029.5,045.5,0.454,744.4,01.18,0.508
2015-03-02 02:53:00,2247E-3,5C000000,-0724,0836,12135,029.5,045.5,0.454,744.4,01.18,0.508
2015-03-02 02:54:00,2283E-3,5C000000,-0724,0836,12239,029.5,045.5,0.454,744.3,01.18,0.508
2015-03-02 02:55:00,2248E-3,5C000000,-0724,0837,12246,029.5,045.5,0.454,744.3,01.18,0.508
2015-03-02 02:56:00,2280E-3,5C000000,-0724,0836,12056,029.5,045.5,0.454,744.3,01.18,0.508
2015-03-02 02:57:00,2200E-3,5C000000,-0724,0837,12220,029.5,045.5,0.454,744.3,01.18,0.508
2015-03-02 02:58:00,2372E-3,5C000000,-0724,0836,12089,029.5,045.5,0.454,744.3,01.18,0.508
2015-03-02 02:59:00,2088E-3,5C000000,-0724,0836,12136,029.5,045.5,0.454,744.4,01.18,0.508
2015-03-02 03:00:00,2240E-3,5C000000,-0724,0837,12141,029.5,045.5,0.454,744.4,01.18,0.508
2015-03-02 03:01:00,2220E-3,5C000000,-0724,0836,12239,029.6,045.5,0.454,744.4,01.18,0.508
2015-03-02 03:02:00,2272E-3,5C000000,-0724,0837,12360,029.6,045.5,0.454,744.4,01.18,0.508
2015-03-02 03:03:00,2425E-3,5C000000,-0724,0836,12098,029.5,045.5,0.454,744.4,01.18,0.508
2015-03-02 03:04:00,2306E-3,5C000000,-0724,0836,12228,029.6,045.5,0.454,744.4,01.18,0.508
2015-03-02 03:05:00,2270E-3,5C000000,-0724,0835,11982,029.6,045.5,0.454,744.4,01.18,0.508
2015-03-02 03:06:00,2284E-3,5C000000,-0724,0837,12263,029.6,045.5,0.454,744.4,01.18,0.508
2015-03-02 03:07:00,2250E-3,5C000000,-0724,0835,11725,029.6,045.5,0.454,744.4,01.18,0.508
2015-03-02 03:08:00,2313E-3,5C000000,-0724,0836,12185,029.6,045.5,0.454,744.4,01.18,0.508
2015-03-02 03:09:00,2237E-3,5C000000,-0724,0834,12131,029.6,045.5,0.454,744.4,01.18,0.508
2015-03-02 03:10:00,2213E-3,5C000000,-0724,0835,12001,029.6,045.5,0.454,744.4,01.18,0.508
2015-03-02 03:11:00,2192E-3,5C000000,-0724,0836,12217,029.6,045.5,0.454,744.4,01.18,0.508
2015-03-02 03:12:00,2279E-3,5C000000,-0724,0836,12159,029.6,045.5,0.454,744.4,01.18,0.508
2015-03-02 03:13:00,2319E-3,5C000000,-0724,0835,11861,029.6,045.5,0.454,744.4,01.18,0.508
2015-03-02 03:14:00,2208E-3,5C000000,-0724,0836,12107,029.7,045.5,0.454,744.4,01.18,0.508
2015-03-02 03:15:00,2271E-3,5C000000,-0724,0837,12256,029.7,045.5,0.454,744.3,01.18,0.508
2015-03-02 03:16:00,2200E-3,5C000000,-0724,0838,12181,029.7,045.5,0.454,744.4,01.18,0.508
2015-03-02 03:17:00,2242E-3,5C000000,-0724,0837,12190,029.6,045.5,0.454,744.4,01.18,0.508
2015-03-02 03:18:00,2412E-3,5C000000,-0724,0837,12050,029.7,045.5,0.454,744.4,01.18,0.508
2015-03-02 03:19:00,2321E-3,5C000000,-0724,0836,12180,029.6,045.5,0.454,744.4,01.18,0.508
2015-03-02 03:20:00,2341E-3,5C000000,-0724,0836,12121,029.7,045.5,0.454,744.4,01.18,0.508
2015-03-02 03:21:00,2321E-3,5C000000,-0724,0837,12216,029.6,045.5,0.454,744.4,01.18,0.508
2015-03-02 03:22:00,2338E-3,5C000000,-0724,0837,12126,029.6,045.5,0.454,744.4,01.18,0.508
2015-03-02 03:23:00,2233E-3,5C000000,-0724,0837,12105,029.6,045.5,0.454,744.4,01.18,0.508
2015-03-02 03:24:00,2461E-3,5C000000,-0724,0837,12134,029.7,045.5,0.454,744.4,01.18,0.508
2015-03-02 03:25:00,2353E-3,5C000000,-0724,0836,12179,029.7,045.5,0.454,744.4,01.18,0.508
2015-03-02 03:26:00,2301E-3,5C000000,-0724,0837,12032,029.6,045.5,0.454,744.4,01.18,0.508
2015-03-02 03:27:00,2350E-3,5C000000,-0724,0837,12177,029.7,045.5,0.454,744.4,01.18,0.508
2015-03-02 03:28:00,2226E-3,5C000000,-0724,0836,12314,029.7,045.5,0.454,744.4,01.18,0.508
2015-03-02 03:29:00,2409E-3,5C000000,-0724,0836,12219,029.7,045.5,0.454,744.4,01.18,0.508
2015-03-02 03:30:00,2347E-3,5C000000,-0724,0836,12195,029.7,045.5,0.454,744.4,01.18,0.508
2015-03-02 03:31:00,2365E-3,5C000000,-0724,0838,12108,029.7,045.5,0.454,744.3,01.18,0.508
2015-03-02 03:32:00,2473E-3,5C000000,-0724,0836,12069,029.7,045.5,0.454,744.4,01.18,0.508
2015-03-02 03:33:00,2386E-3,5C000000,-0724,0836,12173,029.7,045.5,0.454,744.4,01.18,0.508
2015-03-02 03:34:00,2405E-3,5C000000,-0724,0836,12160,029.7,045.5,0.454,744.4,01.18,0.508
2015-03-02 03:35:00,2369E-3,5C000000,-0724,0836,12133,029.7,045.5,0.454,744.4,01.18,0.508
2015-03-02 03:36:00,2347E-3,5C000000,-0724,0836,11997,029.7,045.5,0.454,744.4,01.18,0.508
2015-03-02 03:37:00,2362E-3,5C000000,-0724,0837,12257,029.7,045.5,0.454,744.3,01.18,0.508
2015-03-02 03:38:00,2256E-3,5C000000,-0724,0837,12263,029.7,045.5,0.454,744.4,01.18,0.508
2015-03-02 03:39:00,2439E-3,5C000000,-0724,0836,12171,029.7,045.5,0.454,744.5,01.17,0.508
2015-03-02 03:40:00,2470E-3,5C000000,-0724,0837,12166,029.7,045.5,0.454,744.5,01.17,0.508
2015-03-02 03:41:00,2505E-3,5C000000,-0724,0837,12345,029.7,045.5,0.454,744.5,01.17,0.508
2015-03-02 03:42:00,2460E-3,5C000000,-0724,0836,12128,029.7,045.5,0.454,744.5,01.17,0.508
2015-03-02 03:43:00,2325E-3,5C000000,-0724,0836,12197,029.7,045.5,0.454,744.5,01.17,0.508
2015-03-02 03:44:00,2196E-3,5C000000,-0724,0837,12114,029.7,045.5,0.454,744.5,01.17,0.508
2015-03-02 03:45:00,2404E-3,5C000000,-0724,0837,12095,029.8,045.5,0.454,744.5,01.17,0.508
2015-03-02 03:46:00,2502E-3,5C000000,-0724,0837,12082,029.8,045.5,0.454,744.4,01.18,0.508
2015-03-02 03:47:00,2490E-3,5C000000,-0724,0837,12133,029.8,045.5,0.454,744.3,01.18,0.508
2015-03-02 03:48:00,2315E-3,5C000000,-0724,0837,12293,029.8,045.5,0.454,744.3,01.18,0.508
2015-03-02 03:49:00,2217E-3,5C000000,-0724,0836,12080,029.8,045.5,0.454,744.3,01.18,0.508
2015-03-02 03:50:00,2416E-3,5C000000,-0724,0836,11983,029.8,045.5,0.454,744.3,01.18,0.508
2015-03-02 03:51:00,2363E-3,5C000000,-0724,0838,12143,029.8,045.5,0.454,744.4,01.18,0.508
2015-03-02 03:52:00,2366E-3,5C000000,-0724,0837,12148,029.8,045.5,0.454,744.3,01.18,0.508
2015-03-02 03:53:00,2348E-3,5C000000,-0724,0838,12260,029.8,045.5,0.454,744.3,01.18,0.508
2015-03-02 03:54:00,2392E-3,5C000000,-0724,0835,12062,029.8,045.5,0.454,744.3,01.18,0.508
2015-03-02 03:55:00,2274E-3,5C000000,-0724,0837,12064,029.8,045.5,0.454,744.3,01.18,0.508
2015-03-02 03:56:00,2388E-3,5C000000,-0724,0836,12135,029.8,045.5,0.454,744.3,01.18,0.508
2015-03-02 03:57:00,2467E-3,5C000000,-0724,0838,12249,029.8,045.5,0.454,744.3,01.18,0.508
2015-03-02 03:58:00,2360E-3,5C000000,-0724,0836,12162,029.8,045.5,0.454,744.4,01.18,0.508
2015-03-02 03:59:00,2243E-3,5C000000,-0724,0835,12133,029.8,045.5,0.454,744.4,01.18,0.508
2015-03-02 04:00:00,2440E-3,5C000000,-0724,0837,12260,029.9,045.5,0.454,744.4,01.18,0.508
2015-03-02 04:01:00,2284E-3,5C000000,-0724,0836,12099,029.9,045.5,0.454,744.4,01.18,0.508
2015-03-02 04:02:00,2167E-3,5C000000,-0724,0836,12209,029.8,045.5,0.454,744.4,01.18,0.508
2015-03-02 04:03:00,2277E-3,5C000000,-0724,0836,11851,029.9,045.5,0.454,744.4,01.18,0.508
2015-03-02 04:04:00,2270E-3,5C000000,-0724,0836,12329,029.9,045.5,0.454,744.4,01.18,0.508
2015-03-02 04:05:00,2348E-3,5C000000,-0724,0836,12164,029.9,045.5,0.454,744.4,01.18,0.508
2015-03-02 04:06:00,2296E-3,5C000000,-0724,0837,12245,029.9,045.5,0.453,744.4,01.18,0.508
2015-03-02 04:07:00,2275E-3,5C000000,-0724,0837,12171,029.9,045.5,0.454,744.4,01.18,0.508
2015-03-02 04:08:00,2314E-3,5C000000,-0724,0837,12037,029.9,045.5,0.454,744.4,01.18,0.508
2015-03-02 04:09:00,2233E-3,5C000000,-0724,0837,12189,029.9,045.5,0.453,744.4,01.18,0.508
2015-03-02 04:10:00,2249E-3,5C000000,-0724,0836,12112,029.9,045.5,0.454,744.4,01.18,0.508
2015-03-02 04:11:00,2188E-3,5C000000,-0724,0837,11992,029.9,045.5,0.453,744.4,01.18,0.508
2015-03-02 04:12:00,2231E-3,5C000000,-0724,0838,11982,029.9,045.5,0.454,744.4,01.18,0.508
2015-03-02 04:13:00,2231E-3,5C000000,-0724,0837,11943,030.0,045.5,0.454,744.4,01.18,0.508
2015-03-02 04:14:00,2278E-3,5C000000,-0724,0837,12209,029.9,045.5,0.453,744.4,01.18,0.508
2015-03-02 04:15:00,2130E-3,5C000000,-0724,0837,12123,029.9,045.5,0.454,744.4,01.18,0.508
2015-03-02 04:16:00,2167E-3,5C000000,-0724,0837,12027,030.0,045.5,0.454,744.4,01.18,0.508
2015-03-02 04:17:00,2269E-3,5C000000,-0724,0837,12076,030.0,045.5,0.453,744.4,01.18,0.508
2015-03-02 04:18:00,2234E-3,5C000000,-0724,0838,12026,030.0,045.5,0.454,744.5,01.17,0.508
2015-03-02 04:19:00,2494E-3,5C000000,-0724,0837,11952,030.0,045.5,0.453,744.5,01.17,0.508
2015-03-02 04:20:00,2369E-3,5C000000,-0724,0836,12162,030.0,045.5,0.453,744.5,01.17,0.508